This is the latest recevied weather packets stored in our database for station/object KA0EGE. If no packets are shown the sender has not sent any weather packets the latest 10 day(s).
| Time | Temp. | Humidity | Pressure | Rain* | Wind** | Luminosity | Snow |
|---|---|---|---|---|---|---|---|
| 1777497297 | 25° C | 85% | 1014.8 hPa | 0 mm | - | 156 W/m² | - |
| 1777496993 | 25.56° C | 84% | 1014.7 hPa | 0 mm | - | 138 W/m² | - |
| 1777496690 | 26.11° C | 83% | 1014.9 hPa | 0 mm | - | 169 W/m² | - |
| 1777496386 | 26.11° C | 83% | 1014.9 hPa | 0 mm | - | 200 W/m² | - |
| 1777496083 | 26.11° C | 81% | 1014.9 hPa | 0 mm | - | 336 W/m² | - |
| 1777495779 | 26.67° C | 80% | 1015 hPa | 0 mm | - | 294 W/m² | - |
| 1777495475 | 26.67° C | 80% | 1015.2 hPa | 0 mm | - | 404 W/m² | - |
| 1777495171 | 26.67° C | 80% | 1015.2 hPa | 0 mm | - | 432 W/m² | - |
| 1777494869 | 26.67° C | 81% | 1015.3 hPa | 0 mm | - | 372 W/m² | - |
| 1777494566 | 26.11° C | 81% | 1015.4 hPa | 0 mm | - | 657 W/m² | - |
| 1777494263 | 26.11° C | 81% | 1015.3 hPa | 0 mm | - | 279 W/m² | - |
| 1777493960 | 26.67° C | 80% | 1015.6 hPa | 0 mm | - | 272 W/m² | - |
| 1777493658 | 26.67° C | 79% | 1015.3 hPa | 0 mm | - | 310 W/m² | - |
| 1777493355 | 26.67° C | 79% | 1015.6 hPa | 0 mm | - | 313 W/m² | - |
| 1777493051 | 27.22° C | 76% | 1015.7 hPa | 0 mm | - | 351 W/m² | - |
| 1777492748 | 27.22° C | 76% | 1016 hPa | 0 mm | - | 355 W/m² | - |
| 1777492443 | 27.22° C | 76% | 1016 hPa | 0 mm | - | 561 W/m² | - |
| 1777492141 | 27.22° C | 76% | 1016 hPa | 0 mm | - | 438 W/m² | - |
| 1777491837 | 27.22° C | 76% | 1016.1 hPa | 0 mm | - | 380 W/m² | - |
| 1777491534 | 26.67° C | 77% | 1016.1 hPa | 0 mm | - | 504 W/m² | - |
| 1777491231 | 27.22° C | 77% | 1016.3 hPa | 0 mm | - | 590 W/m² | - |
| 1777490927 | 27.78° C | 75% | 1016.4 hPa | 0 mm | - | 220 W/m² | - |
| 1777490624 | 27.78° C | 76% | 1016.4 hPa | 0 mm | - | 901 W/m² | - |
| 1777490319 | 28.33° C | 74% | 1016.6 hPa | 0 mm | - | 371 W/m² | - |
| 1777490017 | 28.33° C | 74% | 1016.7 hPa | 0 mm | - | 877 W/m² | - |
* Rain latest hour (hover to see other rain measurements)
** Current wind speed in m/s (hover to see current wind gust speed)